| time (UTC) | temp F | wind direction | speed MPH | gust MPH | rain 1hr in | rain 24hr in | rain mn in | humidity % | barometer mb |
| 20260505195504 | 76 | 200 | 9.0 | 23.0 | 0.00 | 0.00 | 0.00 | 43 | 1007.1 |
| 20260505195004 | 77 | 190 | 9.0 | 20.0 | 0.00 | 0.00 | 0.00 | 42 | 1007.1 |
| 20260505194504 | 78 | 183 | 9.0 | 20.0 | 0.00 | 0.00 | 0.00 | 41 | 1006.9 |
| 20260505194025 | 79 | 187 | 9.0 | 20.0 | 0.00 | 0.00 | 0.00 | 41 | 1006.8 |
| 20260505193504 | 80 | 206 | 7.0 | 16.0 | 0.00 | 0.00 | 0.00 | 39 | 1007.0 |
| 20260505193004 | 79 | 204 | 7.0 | 22.0 | 0.00 | 0.00 | 0.00 | 46 | 1007.1 |
| 20260505192525 | 79 | 194 | 7.0 | 22.0 | 0.00 | 0.00 | 0.00 | 42 | 1007.1 |
| 20260505192004 | 80 | 198 | 7.0 | 17.0 | 0.00 | 0.00 | 0.00 | 41 | 1007.1 |
| 20260505191525 | 79 | 196 | 9.0 | 17.0 | 0.00 | 0.00 | 0.00 | 43 | 1007.2 |
| 20260505191004 | 80 | 195 | 9.0 | 17.0 | 0.00 | 0.00 | 0.00 | 40 | 1007.2 |
| 20260505190504 | 81 | 197 | 6.0 | 16.0 | 0.00 | 0.00 | 0.00 | 42 | 1007.2 |
| 20260505190004 | 80 | 192 | 6.0 | 13.0 | 0.00 | 0.00 | 0.00 | 42 | 1007.4 |
| 20260505185504 | 80 | 202 | 7.0 | 14.0 | 0.00 | 0.00 | 0.00 | 40 | 1007.4 |
| 20260505185004 | 80 | 207 | 7.0 | 20.0 | 0.00 | 0.00 | 0.00 | 43 | 1007.6 |
| 20260505184504 | 80 | 201 | 7.0 | 20.0 | 0.00 | 0.00 | 0.00 | 41 | 1007.7 |
| 20260505184004 | 80 | 209 | 6.0 | 17.0 | 0.00 | 0.00 | 0.00 | 39 | 1007.8 |
| 20260505183525 | 80 | 222 | 6.0 | 17.0 | 0.00 | 0.00 | 0.00 | 42 | 1007.7 |
| 20260505183025 | 80 | 219 | 7.0 | 20.0 | 0.00 | 0.00 | 0.00 | 42 | 1007.8 |
| 20260505182525 | 80 | 197 | 9.0 | 23.0 | 0.00 | 0.00 | 0.00 | 43 | 1008.1 |
| 20260505182004 | 80 | 187 | 9.0 | 26.0 | 0.00 | 0.00 | 0.00 | 39 | 1008.2 |
| 20260505181525 | 80 | 192 | 7.0 | 26.0 | 0.00 | 0.00 | 0.00 | 40 | 1008.1 |
| 20260505181004 | 80 | 199 | 7.0 | 17.0 | 0.00 | 0.00 | 0.00 | 45 | 1008.2 |
| 20260505180504 | 80 | 193 | 9.0 | 17.0 | 0.00 | 0.00 | 0.00 | 42 | 1008.5 |
| 20260505180004 | 79 | 192 | 7.0 | 17.0 | 0.00 | 0.00 | 0.00 | 42 | 1008.4 |
| 20260505175504 | 79 | 206 | 6.0 | 16.0 | 0.00 | 0.00 | 0.00 | 41 | 1008.5 |
| 20260505175004 | 79 | 205 | 6.0 | 16.0 | 0.00 | 0.00 | 0.00 | 44 | 1008.5 |
| 20260505174525 | 79 | 189 | 6.0 | 17.0 | 0.00 | 0.00 | 0.00 | 43 | 1008.6 |
| 20260505174004 | 78 | 201 | 6.0 | 17.0 | 0.00 | 0.00 | 0.00 | 46 | 1008.5 |
| 20260505173504 | 78 | 206 | 7.0 | 17.0 | 0.00 | 0.00 | 0.00 | 45 | 1008.7 |
| 20260505173005 | 77 | 196 | 6.0 | 17.0 | 0.00 | 0.00 | 0.00 | 46 | 1008.5 |
| 20260505172505 | 78 | 203 | 6.0 | 20.0 | 0.00 | 0.00 | 0.00 | 46 | 1008.4 |
| 20260505172004 | 79 | 198 | 6.0 | 20.0 | 0.00 | 0.00 | 0.00 | 45 | 1008.4 |
| 20260505171504 | 78 | 209 | 6.0 | 16.0 | 0.00 | 0.00 | 0.00 | 44 | 1008.3 |
| 20260505171004 | 78 | 223 | 6.0 | 16.0 | 0.00 | 0.00 | 0.00 | 47 | 1008.5 |
| 20260505170504 | 78 | 200 | 6.0 | 22.0 | 0.00 | 0.00 | 0.00 | 44 | 1008.6 |
| 20260505170025 | 78 | 183 | 7.0 | 22.0 | 0.00 | 0.00 | 0.00 | 47 | 1008.6 |
| 20260505165504 | 78 | 186 | 7.0 | 22.0 | 0.00 | 0.00 | 0.00 | 47 | 1008.7 |
| 20260505165025 | 78 | 201 | 7.0 | 20.0 | 0.00 | 0.00 | 0.00 | 44 | 1008.7 |
| 20260505164504 | 78 | 194 | 7.0 | 20.0 | 0.00 | 0.00 | 0.00 | 47 | 1008.9 |
| 20260505164004 | 78 | 195 | 6.0 | 17.0 | 0.00 | 0.00 | 0.00 | 47 | 1008.7 |
| 20260505163504 | 78 | 234 | 4.0 | 17.0 | 0.00 | 0.00 | 0.00 | 48 | 1008.9 |
| 20260505163025 | 78 | 217 | 4.0 | 14.0 | 0.00 | 0.00 | 0.00 | 45 | 1009.0 |
| 20260505162504 | 78 | 202 | 6.0 | 14.0 | 0.00 | 0.00 | 0.00 | 48 | 1009.1 |
| 20260505162004 | 78 | 205 | 4.0 | 14.0 | 0.00 | 0.00 | 0.00 | 48 | 1009.0 |
| 20260505161504 | 77 | 211 | 4.0 | 14.0 | 0.00 | 0.00 | 0.00 | 50 | 1009.1 |
| 20260505161025 | 77 | 227 | 4.0 | 14.0 | 0.00 | 0.00 | 0.00 | 48 | 1009.1 |
| 20260505160504 | 77 | 224 | 6.0 | 14.0 | 0.00 | 0.00 | 0.00 | 50 | 1009.1 |
| 20260505153004 | 76 | 186 | 7.0 | 14.0 | 0.00 | 0.00 | 0.00 | 53 | 1009.4 |
| 20260505152505 | 75 | 183 | 6.0 | 14.0 | 0.00 | 0.00 | 0.00 | 51 | 1009.4 |
| 20260505152004 | 75 | 192 | 6.0 | 13.0 | 0.00 | 0.00 | 0.00 | 50 | 1009.5 |
| 20260505151525 | 75 | 196 | 4.0 | 13.0 | 0.00 | 0.00 | 0.00 | 52 | 1009.6 |
| 20260505151004 | 75 | 191 | 6.0 | 22.0 | 0.00 | 0.00 | 0.00 | 54 | 1009.5 |
| 20260505150504 | 74 | 192 | 4.0 | 22.0 | 0.00 | 0.00 | 0.00 | 52 | 1009.5 |
| 20260505140504 | 68 | 189 | 3.0 | 7.0 | 0.00 | 0.00 | 0.00 | 63 | 1010.0 |
| 20260505125025 | 64 | 197 | 4.0 | 12.0 | 0.00 | 0.00 | 0.00 | 67 | 1010.6 |
| 20260505124503 | 64 | 200 | 4.0 | 12.0 | 0.00 | 0.00 | 0.00 | 70 | 1010.4 |
| 20260505124004 | 64 | 187 | 4.0 | 12.0 | 0.00 | 0.00 | 0.00 | 68 | 1010.4 |
| 20260505123504 | 63 | 192 | 4.0 | 9.0 | 0.00 | 0.00 | 0.00 | 68 | 1010.6 |
| 20260505123004 | 62 | 206 | 4.0 | 9.0 | 0.00 | 0.00 | 0.00 | 71 | 1010.4 |
| 20260505122503 | 62 | 207 | 4.0 | 10.0 | 0.00 | 0.00 | 0.00 | 73 | 1010.3 |
| 20260505122004 | 61 | 201 | 4.0 | 10.0 | 0.00 | 0.00 | 0.00 | 75 | 1010.4 |
| 20260505121525 | 61 | 194 | 4.0 | 10.0 | 0.00 | 0.00 | 0.00 | 74 | 1010.4 |
| 20260505121024 | 61 | 185 | 3.0 | 10.0 | 0.00 | 0.00 | 0.00 | 76 | 1010.4 |
| 20260505120503 | 60 | 172 | 3.0 | 6.0 | 0.00 | 0.00 | 0.00 | 73 | 1010.2 |
| 20260505120004 | 60 | 172 | 1.0 | 6.0 | 0.00 | 0.00 | 0.00 | 73 | 1010.3 |
| 20260505115503 | 60 | 170 | 1.0 | 13.0 | 0.00 | 0.00 | 0.00 | 73 | 1010.3 |
| 20260505115004 | 60 | 170 | 1.0 | 13.0 | 0.00 | 0.00 | 0.00 | 73 | 1010.2 |
| 20260505114504 | 59 | 164 | 1.0 | 9.0 | 0.00 | 0.00 | 0.00 | 75 | 1010.2 |
| 20260505114004 | 59 | 168 | 1.0 | 9.0 | 0.00 | 0.00 | 0.00 | 74 | 1010.3 |
| 20260505113524 | 58 | 170 | 1.0 | 4.0 | 0.00 | 0.00 | 0.00 | 74 | 1010.4 |
| 20260505113025 | 58 | 161 | 1.0 | 4.0 | 0.00 | 0.00 | 0.00 | 74 | 1010.3 |
| 20260505112504 | 58 | 167 | 1.0 | 9.0 | 0.00 | 0.00 | 0.00 | 74 | 1010.4 |
| 20260505112003 | 58 | 170 | 1.0 | 9.0 | 0.00 | 0.00 | 0.00 | 75 | 1010.3 |
| 20260505111503 | 58 | 174 | 1.0 | 4.0 | 0.00 | 0.00 | 0.00 | 76 | 1010.1 |
| 20260505111024 | 57 | 169 | 1.0 | 6.0 | 0.00 | 0.00 | 0.00 | 75 | 1010.2 |
| 20260505110504 | 57 | 167 | 3.0 | 6.0 | 0.00 | 0.00 | 0.00 | 77 | 1010.1 |
| 20260505102004 | 56 | 167 | 0.0 | 4.0 | 0.00 | 0.00 | 0.00 | 77 | 1009.7 |
| 20260505101503 | 56 | 167 | 1.0 | 4.0 | 0.00 | 0.00 | 0.00 | 77 | 1009.7 |
| 20260505101003 | 56 | 164 | 1.0 | 4.0 | 0.00 | 0.00 | 0.00 | 77 | 1009.5 |
| 20260505100503 | 56 | 160 | 1.0 | 4.0 | 0.00 | 0.00 | 0.00 | 77 | 1009.4 |
| 20260505100004 | 56 | 158 | 1.0 | 4.0 | 0.00 | 0.00 | 0.00 | 77 | 1009.4 |
| 20260505095503 | 56 | 159 | 1.0 | 6.0 | 0.00 | 0.00 | 0.00 | 77 | 1009.4 |
| 20260505095004 | 56 | 161 | 0.0 | 6.0 | 0.00 | 0.00 | 0.00 | 78 | 1009.3 |
| 20260505094524 | 56 | 167 | 0.0 | 4.0 | 0.00 | 0.00 | 0.00 | 78 | 1009.3 |
| 20260505094003 | 56 | 167 | 0.0 | 4.0 | 0.00 | 0.00 | 0.00 | 79 | 1009.2 |
| 20260505093504 | 56 | 170 | 1.0 | 6.0 | 0.00 | 0.00 | 0.00 | 79 | 1009.3 |
| 20260505093003 | 56 | 171 | 1.0 | 7.0 | 0.00 | 0.00 | 0.00 | 79 | 1009.2 |
| 20260505092503 | 56 | 166 | 1.0 | 9.0 | 0.00 | 0.00 | 0.00 | 79 | 1008.9 |
| 20260505092004 | 56 | 164 | 1.0 | 9.0 | 0.00 | 0.00 | 0.00 | 79 | 1008.9 |
| 20260505091503 | 56 | 169 | 1.0 | 4.0 | 0.00 | 0.00 | 0.00 | 79 | 1008.9 |
| 20260505091003 | 55 | 176 | 1.0 | 4.0 | 0.00 | 0.00 | 0.00 | 79 | 1009.0 |
| 20260505090503 | 56 | 181 | 0.0 | 3.0 | 0.00 | 0.00 | 0.00 | 80 | 1008.9 |
| 20260505090004 | 56 | 185 | 0.0 | 3.0 | 0.00 | 0.00 | 0.00 | 79 | 1009.0 |
| 20260505085503 | 56 | 185 | 0.0 | 3.0 | 0.00 | 0.00 | 0.00 | 78 | 1009.0 |
| 20260505085003 | 56 | 185 | 1.0 | 3.0 | 0.00 | 0.00 | 0.00 | 77 | 1009.0 |
| 20260505084503 | 57 | 186 | 1.0 | 3.0 | 0.00 | 0.00 | 0.00 | 77 | 1009.1 |
| 20260505084003 | 57 | 189 | 1.0 | 3.0 | 0.00 | 0.00 | 0.00 | 76 | 1009.0 |
| 20260505083503 | 57 | 187 | 1.0 | 3.0 | 0.00 | 0.00 | 0.00 | 76 | 1009.2 |
| 20260505083003 | 57 | 178 | 1.0 | 9.0 | 0.00 | 0.00 | 0.00 | 77 | 1009.2 |
| 20260505082503 | 57 | 177 | 3.0 | 10.0 | 0.00 | 0.00 | 0.00 | 76 | 1009.1 |
| 20260505082003 | 57 | 174 | 1.0 | 10.0 | 0.00 | 0.00 | 0.00 | 74 | 1009.0 |
| 20260505081524 | 57 | 166 | 1.0 | 6.0 | 0.00 | 0.00 | 0.00 | 75 | 1009.1 |
| 20260505081003 | 57 | 174 | 0.0 | 3.0 | 0.00 | 0.00 | 0.00 | 76 | 1009.1 |
| 20260505080503 | 57 | 162 | 1.0 | 9.0 | 0.00 | 0.00 | 0.00 | 75 | 1009.3 |
| 20260505080003 | 57 | 150 | 1.0 | 9.0 | 0.00 | 0.00 | 0.00 | 74 | 1009.3 |
| 20260505075503 | 57 | 150 | 1.0 | 10.0 | 0.00 | 0.00 | 0.00 | 71 | 1008.8 |
| 20260505075003 | 57 | 159 | 1.0 | 10.0 | 0.00 | 0.00 | 0.00 | 70 | 1008.8 |
| 20260505074503 | 57 | 163 | 0.0 | 6.0 | 0.00 | 0.00 | 0.00 | 69 | 1008.9 |
| 20260505074003 | 57 | 168 | 0.0 | 3.0 | 0.00 | 0.00 | 0.00 | 68 | 1008.8 |
| 20260505073524 | 57 | 168 | 0.0 | 3.0 | 0.00 | 0.00 | 0.00 | 68 | 1008.7 |
| 20260505073003 | 57 | 179 | 0.0 | 3.0 | 0.00 | 0.00 | 0.00 | 68 | 1008.6 |
| 20260505072503 | 57 | 183 | 0.0 | 3.0 | 0.00 | 0.00 | 0.00 | 67 | 1008.8 |
| 20260505072003 | 58 | 186 | 1.0 | 3.0 | 0.00 | 0.00 | 0.00 | 67 | 1008.8 |
| 20260505071524 | 58 | 187 | 1.0 | 3.0 | 0.00 | 0.00 | 0.00 | 66 | 1008.9 |
| 20260505071003 | 58 | 184 | 1.0 | 4.0 | 0.00 | 0.00 | 0.00 | 66 | 1008.9 |
| 20260505070503 | 58 | 177 | 1.0 | 4.0 | 0.00 | 0.00 | 0.00 | 65 | 1009.0 |
| 20260505070003 | 58 | 168 | 1.0 | 7.0 | 0.00 | 0.00 | 0.00 | 65 | 1008.9 |
| 20260505065524 | 58 | 167 | 1.0 | 7.0 | 0.00 | 0.00 | 0.00 | 65 | 1008.9 |
| 20260505065024 | 58 | 168 | 1.0 | 6.0 | 0.00 | 0.00 | 0.00 | 66 | 1008.9 |
| 20260505064503 | 58 | 165 | 3.0 | 12.0 | 0.00 | 0.00 | 0.00 | 66 | 1008.9 |
| 20260505064003 | 58 | 166 | 3.0 | 12.0 | 0.00 | 0.00 | 0.00 | 66 | 1008.9 |
| 20260505063524 | 58 | 166 | 3.0 | 6.0 | 0.00 | 0.00 | 0.00 | 65 | 1008.9 |
| 20260505063003 | 58 | 164 | 1.0 | 6.0 | 0.00 | 0.00 | 0.00 | 64 | 1009.0 |
| 20260505062503 | 59 | 168 | 1.0 | 6.0 | 0.00 | 0.00 | 0.00 | 64 | 1009.1 |
| 20260505062003 | 59 | 168 | 1.0 | 7.0 | 0.00 | 0.00 | 0.00 | 64 | 1009.2 |
| 20260505061503 | 59 | 166 | 1.0 | 7.0 | 0.00 | 0.00 | 0.00 | 64 | 1009.2 |
| 20260505061003 | 59 | 165 | 3.0 | 9.0 | 0.00 | 0.00 | 0.00 | 64 | 1009.2 |
| 20260505060503 | 59 | 163 | 3.0 | 9.0 | 0.00 | 0.00 | 0.00 | 64 | 1009.3 |
| 20260505060003 | 59 | 163 | 3.0 | 6.0 | 0.00 | 0.00 | 0.00 | 63 | 1009.2 |
| 20260505055503 | 59 | 165 | 3.0 | 10.0 | 0.00 | 0.00 | 0.00 | 63 | 1009.3 |
| 20260505055003 | 59 | 163 | 1.0 | 10.0 | 0.00 | 0.00 | 0.00 | 62 | 1009.2 |
| 20260505054503 | 59 | 165 | 1.0 | 6.0 | 0.00 | 0.00 | 0.00 | 63 | 1009.3 |
| 20260505054024 | 59 | 165 | 3.0 | 9.0 | 0.00 | 0.00 | 0.00 | 62 | 1009.2 |
| 20260505053503 | 59 | 158 | 3.0 | 9.0 | 0.00 | 0.00 | 0.00 | 62 | 1009.2 |
| 20260505053003 | 59 | 160 | 3.0 | 9.0 | 0.00 | 0.00 | 0.00 | 63 | 1009.2 |
| 20260505052526 | 59 | 168 | 1.0 | 9.0 | 0.00 | 0.00 | 0.00 | 62 | 1009.3 |
| 20260505052005 | 59 | 173 | 1.0 | 6.0 | 0.00 | 0.00 | 0.00 | 61 | 1009.3 |
| 20260505051505 | 60 | 175 | 3.0 | 7.0 | 0.00 | 0.00 | 0.00 | 60 | 1009.3 |
| 20260505051005 | 60 | 171 | 3.0 | 10.0 | 0.00 | 0.00 | 0.00 | 59 | 1009.3 |
| 20260505050505 | 60 | 162 | 1.0 | 10.0 | 0.00 | 0.00 | 0.00 | 59 | 1009.3 |
| 20260505041526 | 60 | 152 | 1.0 | 7.0 | 0.00 | 0.00 | 0.00 | 59 | 1008.9 |
| 20260505041005 | 60 | 162 | 3.0 | 13.0 | 0.00 | 0.00 | 0.00 | 57 | 1008.8 |
| 20260505040505 | 60 | 163 | 3.0 | 13.0 | 0.00 | 0.00 | 0.00 | 57 | 1008.9 |
| 20260505040006 | 60 | 163 | 1.0 | 6.0 | 0.00 | 0.00 | 0.00 | 59 | 1008.9 |
| 20260505035505 | 60 | 156 | 1.0 | 7.0 | 0.00 | 0.00 | 0.00 | 58 | 1008.9 |
| 20260505035005 | 60 | 159 | 1.0 | 7.0 | 0.00 | 0.00 | 0.00 | 59 | 1008.8 |
| 20260505034505 | 60 | 160 | 3.0 | 13.0 | 0.00 | 0.00 | 0.00 | 58 | 1008.8 |
| 20260505034026 | 60 | 170 | 3.0 | 13.0 | 0.00 | 0.00 | 0.00 | 58 | 1008.8 |
| 20260505033505 | 60 | 171 | 3.0 | 14.0 | 0.00 | 0.00 | 0.00 | 58 | 1008.8 |
| 20260505033005 | 61 | 160 | 3.0 | 14.0 | 0.00 | 0.00 | 0.00 | 58 | 1008.9 |
| 20260505032505 | 60 | 161 | 4.0 | 12.0 | 0.00 | 0.00 | 0.00 | 58 | 1008.7 |
| 20260505032005 | 60 | 163 | 3.0 | 12.0 | 0.00 | 0.00 | 0.00 | 58 | 1008.9 |
| 20260505031505 | 60 | 162 | 3.0 | 12.0 | 0.00 | 0.00 | 0.00 | 58 | 1009.0 |
| 20260505031005 | 60 | 166 | 3.0 | 10.0 | 0.00 | 0.00 | 0.00 | 60 | 1009.0 |
| 20260505030526 | 60 | 170 | 3.0 | 6.0 | 0.00 | 0.00 | 0.00 | 58 | 1009.1 |
| 20260505030026 | 60 | 165 | 3.0 | 10.0 | 0.00 | 0.00 | 0.00 | 59 | 1009.1 |
| 20260505025505 | 60 | 165 | 3.0 | 10.0 | 0.00 | 0.00 | 0.00 | 58 | 1009.1 |
| 20260505025005 | 60 | 172 | 1.0 | 6.0 | 0.00 | 0.00 | 0.00 | 58 | 1009.2 |
| 20260505024526 | 61 | 178 | 1.0 | 6.0 | 0.00 | 0.00 | 0.00 | 59 | 1009.2 |
| 20260505024005 | 61 | 174 | 1.0 | 6.0 | 0.00 | 0.00 | 0.00 | 57 | 1009.3 |
| 20260505023506 | 61 | 166 | 3.0 | 13.0 | 0.00 | 0.00 | 0.00 | 57 | 1009.3 |
| 20260505023005 | 62 | 166 | 3.0 | 13.0 | 0.00 | 0.00 | 0.00 | 56 | 1009.2 |
| 20260505022505 | 62 | 165 | 3.0 | 9.0 | 0.00 | 0.00 | 0.00 | 56 | 1009.3 |
| 20260505022005 | 62 | 164 | 3.0 | 9.0 | 0.00 | 0.00 | 0.00 | 56 | 1009.3 |
| 20260505021505 | 62 | 163 | 3.0 | 10.0 | 0.00 | 0.00 | 0.00 | 55 | 1009.3 |
| 20260505021005 | 62 | 164 | 3.0 | 10.0 | 0.00 | 0.00 | 0.00 | 56 | 1009.3 |
| 20260505020505 | 62 | 166 | 3.0 | 9.0 | 0.00 | 0.00 | 0.00 | 55 | 1009.4 |
| 20260505020005 | 62 | 166 | 3.0 | 10.0 | 0.00 | 0.00 | 0.00 | 55 | 1009.2 |
| 20260505015505 | 62 | 165 | 3.0 | 10.0 | 0.00 | 0.00 | 0.00 | 54 | 1009.3 |
| 20260505015004 | 63 | 165 | 3.0 | 9.0 | 0.00 | 0.00 | 0.00 | 54 | 1009.2 |
| 20260505014505 | 63 | 163 | 3.0 | 9.0 | 0.00 | 0.00 | 0.00 | 54 | 1009.2 |
| 20260505014005 | 63 | 161 | 3.0 | 6.0 | 0.00 | 0.00 | 0.00 | 53 | 1009.2 |
| 20260505013504 | 63 | 161 | 1.0 | 6.0 | 0.00 | 0.00 | 0.00 | 53 | 1009.2 |
| 20260505013005 | 63 | 162 | 1.0 | 6.0 | 0.00 | 0.00 | 0.00 | 53 | 1009.2 |
| 20260505012505 | 63 | 165 | 3.0 | 7.0 | 0.00 | 0.00 | 0.00 | 52 | 1009.3 |
| 20260505012005 | 64 | 166 | 3.0 | 7.0 | 0.00 | 0.00 | 0.00 | 53 | 1009.1 |
| 20260505011506 | 64 | 167 | 3.0 | 7.0 | 0.00 | 0.00 | 0.00 | 53 | 1009.1 |
| 20260505011005 | 64 | 167 | 3.0 | 7.0 | 0.00 | 0.00 | 0.00 | 52 | 1009.1 |
| 20260505010505 | 64 | 163 | 3.0 | 9.0 | 0.00 | 0.00 | 0.00 | 52 | 1009.1 |
| 20260505010026 | 64 | 162 | 3.0 | 9.0 | 0.00 | 0.00 | 0.00 | 52 | 1009.1 |
| 20260505005505 | 64 | 166 | 3.0 | 9.0 | 0.00 | 0.00 | 0.00 | 52 | 1009.0 |
| 20260505005005 | 64 | 170 | 3.0 | 10.0 | 0.00 | 0.00 | 0.00 | 51 | 1009.1 |
| 20260505004505 | 64 | 169 | 3.0 | 12.0 | 0.00 | 0.00 | 0.00 | 51 | 1009.0 |
| 20260505004026 | 65 | 165 | 4.0 | 13.0 | 0.00 | 0.00 | 0.00 | 50 | 1008.9 |
| 20260505003505 | 65 | 166 | 4.0 | 13.0 | 0.00 | 0.00 | 0.00 | 49 | 1008.9 |
| 20260505003004 | 65 | 168 | 4.0 | 10.0 | 0.00 | 0.00 | 0.00 | 48 | 1008.8 |
| 20260505002505 | 65 | 164 | 4.0 | 14.0 | 0.00 | 0.00 | 0.00 | 48 | 1008.7 |
| 20260505002005 | 65 | 166 | 4.0 | 14.0 | 0.00 | 0.00 | 0.00 | 49 | 1008.7 |
| 20260505001505 | 66 | 167 | 4.0 | 20.0 | 0.00 | 0.00 | 0.00 | 48 | 1008.6 |
| 20260505001026 | 66 | 165 | 6.0 | 20.0 | 0.00 | 0.00 | 0.00 | 48 | 1008.5 |
| 20260505000505 | 66 | 168 | 4.0 | 16.0 | 0.00 | 0.00 | 0.00 | 48 | 1008.5 |
| 20260505000005 | 66 | 177 | 4.0 | 16.0 | 0.00 | 0.00 | 0.00 | 48 | 1008.6 |
| 20260504235505 | 67 | 177 | 4.0 | 13.0 | 0.00 | 0.00 | 0.00 | 47 | 1008.5 |
| 20260504235005 | 67 | 173 | 6.0 | 20.0 | 0.00 | 0.00 | 0.00 | 46 | 1008.5 |
| 20260504234505 | 67 | 177 | 6.0 | 20.0 | 0.00 | 0.00 | 0.00 | 47 | 1008.4 |
| 20260504234025 | 67 | 183 | 4.0 | 16.0 | 0.00 | 0.00 | 0.00 | 46 | 1008.3 |
| 20260504233505 | 67 | 192 | 3.0 | 7.0 | 0.00 | 0.00 | 0.00 | 47 | 1008.2 |
| 20260504233005 | 68 | 188 | 3.0 | 12.0 | 0.00 | 0.00 | 0.00 | 45 | 1008.1 |
| 20260504232504 | 68 | 189 | 3.0 | 12.0 | 0.00 | 0.00 | 0.00 | 45 | 1008.0 |
| 20260504232025 | 68 | 198 | 4.0 | 9.0 | 0.00 | 0.00 | 0.00 | 44 | 1008.0 |
| 20260504231504 | 68 | 200 | 4.0 | 17.0 | 0.00 | 0.00 | 0.00 | 45 | 1007.9 |
| 20260504231005 | 68 | 204 | 4.0 | 17.0 | 0.00 | 0.00 | 0.00 | 45 | 1007.9 |
| 20260504230505 | 68 | 197 | 4.0 | 10.0 | 0.00 | 0.00 | 0.00 | 45 | 1007.9 |
| 20260504230026 | 69 | 185 | 6.0 | 14.0 | 0.00 | 0.00 | 0.00 | 44 | 1007.8 |
| 20260504225525 | 69 | 180 | 6.0 | 14.0 | 0.00 | 0.00 | 0.00 | 44 | 1007.8 |
| 20260504225026 | 69 | 188 | 4.0 | 12.0 | 0.00 | 0.00 | 0.00 | 43 | 1007.7 |
| 20260504224505 | 69 | 188 | 4.0 | 10.0 | 0.00 | 0.00 | 0.00 | 43 | 1007.6 |
| 20260504224004 | 69 | 183 | 4.0 | 12.0 | 0.00 | 0.00 | 0.00 | 43 | 1007.6 |
| 20260504223505 | 69 | 179 | 6.0 | 17.0 | 0.00 | 0.00 | 0.00 | 43 | 1007.7 |
| 20260504223004 | 70 | 177 | 4.0 | 17.0 | 0.00 | 0.00 | 0.00 | 43 | 1007.6 |
| 20260504222504 | 70 | 198 | 4.0 | 13.0 | 0.00 | 0.00 | 0.00 | 42 | 1007.6 |
| 20260504222004 | 70 | 204 | 4.0 | 13.0 | 0.00 | 0.00 | 0.00 | 43 | 1007.7 |
| 20260504221504 | 70 | 212 | 4.0 | 10.0 | 0.00 | 0.00 | 0.00 | 42 | 1007.7 |
| 20260504221025 | 70 | 226 | 4.0 | 10.0 | 0.00 | 0.00 | 0.00 | 41 | 1007.7 |
| 20260504220505 | 70 | 211 | 4.0 | 12.0 | 0.00 | 0.00 | 0.00 | 41 | 1007.9 |
| 20260504220004 | 70 | 211 | 6.0 | 12.0 | 0.00 | 0.00 | 0.00 | 42 | 1007.8 |
| 20260504215504 | 70 | 217 | 6.0 | 13.0 | 0.00 | 0.00 | 0.00 | 41 | 1007.9 |
| 20260504215004 | 70 | 202 | 4.0 | 14.0 | 0.00 | 0.00 | 0.00 | 41 | 1007.8 |
| 20260504214504 | 70 | 192 | 6.0 | 19.0 | 0.00 | 0.00 | 0.00 | 43 | 1007.8 |
| 20260504214004 | 70 | 191 | 6.0 | 19.0 | 0.00 | 0.00 | 0.00 | 43 | 1007.7 |
| 20260504213504 | 70 | 200 | 4.0 | 12.0 | 0.00 | 0.00 | 0.00 | 41 | 1007.7 |
| 20260504213004 | 71 | 213 | 4.0 | 13.0 | 0.00 | 0.00 | 0.00 | 41 | 1007.9 |
| 20260504212505 | 71 | 211 | 4.0 | 13.0 | 0.00 | 0.00 | 0.00 | 41 | 1007.9 |
| 20260504212004 | 71 | 193 | 4.0 | 14.0 | 0.00 | 0.00 | 0.00 | 41 | 1008.0 |
| 20260504211504 | 71 | 182 | 6.0 | 14.0 | 0.00 | 0.00 | 0.00 | 43 | 1008.0 |
| 20260504211004 | 72 | 188 | 4.0 | 10.0 | 0.00 | 0.00 | 0.00 | 40 | 1008.1 |
| 20260504210504 | 72 | 201 | 4.0 | 12.0 | 0.00 | 0.00 | 0.00 | 42 | 1008.2 |
| 20260504210004 | 72 | 206 | 3.0 | 12.0 | 0.00 | 0.00 | 0.00 | 41 | 1008.4 |
| 20260504205504 | 72 | 193 | 3.0 | 13.0 | 0.00 | 0.00 | 0.00 | 40 | 1008.3 |
| 20260504205025 | 72 | 203 | 4.0 | 13.0 | 0.00 | 0.00 | 0.00 | 40 | 1008.5 |
| 20260504204505 | 72 | 222 | 3.0 | 13.0 | 0.00 | 0.00 | 0.00 | 41 | 1008.6 |
| 20260504204004 | 72 | 201 | 4.0 | 12.0 | 0.00 | 0.00 | 0.00 | 40 | 1008.5 |
| 20260504203504 | 72 | 200 | 6.0 | 12.0 | 0.00 | 0.00 | 0.00 | 40 | 1008.5 |
| 20260504203004 | 72 | 204 | 4.0 | 12.0 | 0.00 | 0.00 | 0.00 | 40 | 1008.6 |
| 20260504202504 | 71 | 176 | 4.0 | 16.0 | 0.00 | 0.00 | 0.00 | 44 | 1008.6 |
| 20260504202004 | 71 | 177 | 6.0 | 16.0 | 0.00 | 0.00 | 0.00 | 41 | 1008.6 |
| 20260504201505 | 71 | 188 | 6.0 | 13.0 | 0.00 | 0.00 | 0.00 | 40 | 1008.8 |
| 20260504201004 | 71 | 195 | 6.0 | 14.0 | 0.00 | 0.00 | 0.00 | 42 | 1008.8 |
| 20260504200505 | 71 | 206 | 4.0 | 14.0 | 0.00 | 0.00 | 0.00 | 41 | 1008.9 |
| 20260504200005 | 71 | 203 | 4.0 | 16.0 | 0.00 | 0.00 | 0.00 | 43 | 1008.8 |